FENGYUN 1C DEB

Satellite information

Favourite Embed

Satellite Type and Status

DEBRISIN ORBIT

Key statistics

Satellite FENGYUN 1C DEB at a glance.

Uptime

9665

Days in orbit

Revolutions

≈ 14.3

Per day

Orbit

SSO

Sun Synchronous Orbit

Inclination

98.9

Latest

Satellite identification and parameters

Extended collection of information and parameters for FENGYUN 1C DEB.

Object identification

Identified? True

Debris? True

Object name: FENGYUN 1C DEB

International designator: 1999-025ABK

Object number (NORAD): 30348

Object ID (CCSDS): 30348

Country: PEOPLES REPUBLIC OF CHINA (PRC)

Current information (Y/N): Y

RCS size: SMALL

Orbital parameters

Period: 100.401 minutes

Inclination: 98.8646 deg

SMA: 7155.698 km

Apoapsis: 793.191 km

Periapsis: 761.935 km

RAAN: 30.2147 deg

Eccentricy: 0.00218395

Argument of periapsis: 163.5757 deg

Mean anomaly: 347.9961 deg

Mean motion: 14.34249621 rev/day

Mean motion (dot): 0.00007415 rev/day2

B* drag term: 0.0026495698 1/REarth

Two-line elements (TLE)

Creation date: Oct. 24, 2025, 2:48 a.m.

Reference frame: TEME

Reference center: EARTH

Epoch: Oct. 23, 2025, 6 p.m. UTC

TLE line 0: 0 FENGYUN 1C DEB

TLE line 1: 1 30348U 99025ABK 25296.75036402 .00007415 00000-0 26496-2 0 9990

TLE line 2: 2 30348 98.8646 30.2147 0021840 163.5757 347.9961 14.34249621968173

Live tracking on map

Real-time ground track for satellite FENGYUN 1C DEB.

In-orbit conjunctions

A list of the most updated potential collisions computed for object FENGYUN 1C DEB.

Target Orbit TCA Probability of collision Miss distance Type
IRIDIUM 42 LEO 2025-10-16 15:40:58 0.0003936895 441.0 (m) PAYLOAD
CZ-4B DEB LEO 2025-07-10 22:39:23 0.0002401673 89.0 (m) DEBRIS
SL-8 R/B LEO 2025-06-14 19:43:34 0.0001631732 319.0 (m) ROCKET BODY
COSMOS 2251 DEB LEO 2024-08-10 05:29:58 0.0001085347 144.0 (m) DEBRIS

Associated space launch

Chinese polar orbiting meteorological satellite

FENGYUN 1C DEB was lifted into orbit during the mission ‘Long March 4B | Feng Yun 1C’, on board a Long March 4B space rocket.

The launch took place on May 10, 1999, 1:33 a.m. from Launch Complex 7.

For more information about the launch, click the button.

Launch to space Long March 4B | Feng Yun 1C
Long March 4B | Feng Yun 1C

Agency: N/A

Status: Launch Successful

Launch date: May 10, 1999, 1:33 a.m. UTC

Rocket: Long March 4B

Launch pad: Launch Complex 7

Location: Taiyuan Satellite Launch Center, People's Republic of China

...

Latest news about this satellite

There are no fresh news available about this satellite. Check back as we update our databases every day.


Newsletter sign-up

Weekly statistics, charts and insights to help you stay on top of the space industry.